Regional Weather Roundup
Issued by NWS

Home | Current Version | Previous Version | Text Only | Print | Product List | Glossary On
Versions: 1 2 3 4 5 6 7 8 9 10 11 12 13 14 15 16 17 18 19 20 21 22 23 24 25 26 27 28 29 30 31 32 33 34 35 36 37 38 39 40 41 42 43 44 45 46 47 48 49 50
000
ASUS43 KTOP 230159
RWRKS

WEATHER ROUNDUP FOR KANSAS
NATIONAL WEATHER SERVICE GOODLAND KS
900 PM CDT SAT JUL 22 2017

NOTE:  "FAIR" INDICATES FEW OR NO CLOUDS BELOW 12,000 FEET WITH NO
SIGNIFICANT WEATHER AND/OR OBSTRUCTIONS TO VISIBILITY.

KSZ001>006-013>018-027>032-041>047-230300-
NORTHWEST KANSAS

CITY           SKY/WX    TMP DP  RH WIND       PRES   REMARKS
GOODLAND       PTCLDY    76  51  41 E8        30.08R
HAYS           LGT RAIN  74  69  85 NE15      29.94F
HILL CITY      LGT RAIN  75  71  87 NE14      29.94F FOG
RUSSELL        LGT RAIN  73  66  78 E12       29.96R
$$

KSZ061>065-074>080-084>089-230300-
SOUTHWEST KANSAS

CITY           SKY/WX    TMP DP  RH WIND       PRES   REMARKS
DODGE CITY     MOCLDY    79  62  56 E13       29.96R
GARDEN CITY    PTCLDY    79  63  57 NE21G26   29.97R
LIBERAL        MOCLDY    85  65  51 NE17      29.96R
$$

KSZ066>073-081>083-090>101-230300-
SOUTHEAST KANSAS

CITY           SKY/WX    TMP DP  RH WIND       PRES   REMARKS
CHANUTE        PTCLDY    91  73  55 S9        29.83R HX  99
COFFEYVILLE    CLEAR     89  73  59 S7        29.83R HX  97
HUTCHINSON     MOCLDY    85  69  58 N18G30    29.88R
MEDICINE LODGE   N/A     95  59  30 E5        29.82R
NEWTON         LGT RAIN  85  66  53 N29G46    29.88R
PARSONS        CLEAR     89  73  59 S5        29.85R HX  97
WICHITA INTL   PTCLDY    92  65  40 S9        29.82R
WICHITA JABRA  CLEAR     93  66  40 S10       29.82R HX  96
WINFIELD       CLEAR     91  67  44 S7        29.84R
$$

KSZ007>012-019>026-033>040-048>060-102>105-230300-
NORTHEAST KANSAS

CITY           SKY/WX    TMP DP  RH WIND       PRES   REMARKS
CONCORDIA      CLOUDY    72  68  87 SE7       29.95F
EMPORIA        LGT RAIN  83  62  49 N15       29.86R
LAWRENCE       CLOUDY    88  80  77 NW13      29.82R HX 104
MANHATTAN      TSTM      74  70  87 NE9       29.95R
OLATHE IND     CLOUDY    90  76  63 NE6       29.82F HX 101
OLATHE EXE     TSTM      91  76  61 N13       29.83S HX 103
SALINA         TSTM      79  69  71 N15       29.91R
TOPEKA BILLARD TSTM      75  73  93 W14       29.92R FOG
TOPEKA FORBES  TSTM      76  69  79 NW16G29   29.90R
$$




USA.gov is the U.S. government's official web portal to all federal, state and local government web resources and services.